Regional Weather Roundup
Issued by NWS

Home | Current Version | Previous Version | Graphics & Text | Print | Product List | Glossary On
Versions: 1 2 3 4 5 6 7 8 9 10 11 12 13 14 15 16 17 18 19 20 21 22 23 24 25 26 27 28 29 30 31 32 33 34 35 36 37 38 39 40 41 42 43 44 45 46 47 48 49 50
000
ASUS43 KBIS 250520
RWRND

NORTH DAKOTA REGIONAL WEATHER ROUNDUP
NATIONAL WEATHER SERVICE BISMARCK ND
1200 AM CDT SAT APR 25 2015

NOTE: "FAIR" INDICATES FEW OR NO CLOUDS BELOW 12,000 FEET WITH NO
SIGNIFICANT WEATHER AND/OR OBSTRUCTIONS TO VISIBILITY.


NDZ001>003-009>011-017-250600-
NORTHWEST NORTH DAKOTA

CITY           SKY/WX    TMP DP  RH WIND       PRES   REMARKS
WILLISTON      CLOUDY    57  35  43 SE9       29.65S
MINOT          CLEAR     45  38  76 E13       29.72R
MINOT AFB      CLEAR     46  42  88 E17       29.72R
$$

NDZ018>021-031>035-040>046-250600-
SOUTHWEST NORTH DAKOTA

CITY           SKY/WX    TMP DP  RH WIND       PRES   REMARKS
BISMARCK       CLEAR     47  42  83 E12       29.71S
DICKINSON      CLEAR     43  33  68 E8        29.64S
GARRISON         N/A     47  40  76 E14       29.70R
HETTINGER ARPT CLEAR     48  35  60 E13       29.66F
$$

NDZ004>008-012>016-024-026-027-054-250600-
NORTHEAST NORTH DAKOTA

CITY           SKY/WX    TMP DP  RH WIND       PRES   REMARKS
GRAND FORKS    CLOUDY    46  35  65 E12       29.82S
GRND FRKS AFB  CLOUDY    46  36  67 SE7       29.82R
DEVILS LAKE    CLOUDY    45  37  76 E13       29.79R
$$

NDZ022-023-025-028>030-036>039-047>053-250600-
SOUTHEAST NORTH DAKOTA

CITY           SKY/WX    TMP DP  RH WIND       PRES   REMARKS
FARGO          CLOUDY    46  39  76 E9        29.78S
JAMESTOWN      CLOUDY    46  40  79 E13       29.75R
$$



USA.gov is the U.S. government's official web portal to all federal, state and local government web resources and services.